Location: Unspecified
(0.0000°N, 0.0000°E)
Time: 19:25:39
(UTC+00:00)

Vanguard 3 - Pass Details

Date: 12 December 2017
Orbit: 508 x 3264 km, 33.4° (Epoch: 19 January)

Event Time Altitude Azimuth Distance (km) Brightness Sun altitude
Rises 02:09:54 0° 239° (WSW) 6,822 11.7 -49.6°
Reaches altitude 10° 02:17:15 10° 222° (SW) 6,094 11.5 -48.2°
Maximum altitude 02:28:45 18° 185° (S) 5,536 11.5 -45.8°
Drops below altitude 10° 02:39:52 10° 149° (SSE) 5,857 12.0 -43.5°
Sets 02:46:41 0° 131° (SE) 6,467 12.6 -42.1°
